Airfield :
LOGIN :

Register | Disclaimer

   EN    FR    IT 

 










Legend :    VFR   Marginal VFR   IFR   Intensive IFR   Very Intensive IFR
Visi :
Ceiling :
>= 8 km
>= 3000ft
5 to 8 km
1000 to 3000 ft
1500m to 5 km
500 to 1000 ft
800 to 1500m
200 to 500 ft
< 800m
< 200 ft
Symbols :   Thunderstorms  Fog  Heavy snow  Heavy precipitations  Wind > 20 kt
SIGMETs :     Misc.  Thunderstorms  Icing  Turbulence  Mountain Waves  Volcanic Ashes







- Airport Elevation : 22 ft
- IATA code : TUN


DTTA - Tunis Carthage

CURRENT METAR :
  • 170200Z 21006KT 170V250 9999 FEW023 13/09 Q1019 NOSIG

EXPIRED METARs :
  • 170130Z 20006KT 9999 FEW023PY4/09 Q1019 NOSIG
  • 170100Z 22009KT 9999 FEW023 14/09 Q1019 NOSIG
  • 170030Z 21009KT 9999 FEW023 14/08 Q1019 NOSIG
  • 170000Z VRB02KT 9999 FEW023 15/09 Q1019 NOSIG
  • 162330Z VRB02KT 9999 FEW023 14/08 Q1019 NOSIG

TAF TAF DTTA
Valid from the 17 at 00:00 until the 18 at 00:00 UTC


162300Z 1700/1724 19004KT 9999 FEW023
BECMG 1701/1703 27015G30KT
No reported NOTAMs for that airfield.



MET'MAP, your aeronautical weather chart ! - Copyright ORBIFLY December 2007 - Disclaimer

ORBIFLY MET'MAP TEAM :

Programming & Development : Alexandra Zaïnal
Concept & Development : Baudouin d'Aumeries
Co-Development & Prog : Marc-Olivier Méhu
Technical & hardware support : Manuel Goepfert

Contact : metmap@orbifly.com




SOURCES & CREDITS :

   NOAA